Selinsgrove, PA

9:23 AM EDT on March 25, 2017 (GMT -0400)
Penn Valley

Weather History for KSEG - January, 2013

Change the Weather History Date:

Saturday, January 12, 2013

  Actual Average (KIPT) Record (KIPT)
Temperature  
Mean Temperature 40 °F -  
Max Temperature 44 °F 31 °F 57 °F (1986)
Min Temperature 35 °F 18 °F -12 °F (1981)
Degree Days  
Heating Degree Days 26    
Moisture  
Dew Point 38 °F    
Average Humidity 97    
Maximum Humidity 100    
Minimum Humidity 85    
Precipitation  
Precipitation 0.01 in - - ()
Sea Level Pressure  
Sea Level Pressure 30.15 in    
Wind  
Wind Speed 1 mph (NNW)    
Max Wind Speed 7 mph    
Max Gust Speed -    
Visibility 2 miles    
Events Fog    
Averages and records for this station are not official NWS values.
T = Trace of Precipitation, MM = Missing Value Source: NWS Daily Summary

Daily Weather History Graph

Daily Weather History Graph

Search for Another Location

Airport or City:

Trip Planner

Search our weather history database for the weather conditions in past years. The results will help you decide how hot, cold, wet, or windy it might be!

Date:

Astronomy

Jan. 12, 2013 Rise Set
Actual Time 7:30 AM EST 5:01 PM EST
Civil Twilight 7:00 AM EST 5:31 PM EST
Nautical Twilight 6:26 AM EST 6:05 PM EST
Astronomical Twilight 5:53 AM EST 6:38 PM EST
Moon 7:47 AM EST (1/12) 6:28 PM EST (1/12)
Length of Visible Light 10h 31m
Length of Day
9h 30m
New Moon, 1% of the Moon is Illuminated
Jan 12
New Moon
Jan 18
First Quarter
Jan 26
Full
Feb 3
Last Quarter
Feb 10
New

Hourly Weather History & Observations

Time (EST) Temp. Windchill Dew Point Humidity Pressure Visibility Wind Dir Wind Speed Gust Speed Precip Events Conditions
12:53 AM 35.1 °F - 35.1 °F 100% 30.12 in 0.2 mi Calm Calm - N/A Fog Fog
1:53 AM 35.1 °F - 35.1 °F 100% 30.14 in 0.2 mi Calm Calm - N/A Fog Fog
2:53 AM 35.1 °F - 35.1 °F 100% 30.13 in 0.2 mi Calm Calm - N/A Fog Fog
3:53 AM 35.1 °F - 35.1 °F 100% 30.14 in 0.2 mi Calm Calm - N/A Fog Fog
4:53 AM 35.1 °F - 35.1 °F 100% 30.13 in 0.2 mi Calm Calm - N/A Fog Fog
5:53 AM 35.1 °F - 35.1 °F 100% 30.14 in 0.2 mi Calm Calm - N/A Fog Fog
6:53 AM 35.1 °F - 35.1 °F 100% 30.16 in 0.2 mi Calm Calm - N/A Fog Fog
7:53 AM 35.1 °F - 34.0 °F 96% 30.17 in 0.2 mi Calm Calm - N/A Fog Fog
8:53 AM 36.0 °F - 36.0 °F 100% 30.17 in 0.2 mi Calm Calm - N/A Fog Fog
9:53 AM 36.0 °F - 36.0 °F 100% 30.18 in 0.2 mi Calm Calm - N/A Fog Fog
10:53 AM 37.9 °F - 37.9 °F 100% 30.19 in 0.8 mi Calm Calm - N/A   Overcast
11:06 AM 37.4 °F - 37.4 °F 100% 30.16 in 0.8 mi Calm Calm - N/A   Overcast
11:17 AM 39.2 °F - 37.4 °F 93% 30.17 in 1.2 mi Calm Calm - N/A   Overcast
11:24 AM 39.2 °F - 37.4 °F 93% 30.16 in 1.0 mi Calm Calm - N/A   Overcast
11:34 AM 37.4 °F - 37.4 °F 100% 30.16 in 1.5 mi Calm Calm - N/A   Overcast
11:47 AM 39.2 °F - 39.2 °F 100% 30.15 in 2.0 mi Calm Calm - N/A   Overcast
11:53 AM 39.9 °F - 39.0 °F 97% 30.16 in 2.0 mi Calm Calm - N/A   Mostly Cloudy
12:10 PM 39.2 °F - 39.2 °F 100% 30.14 in 2.0 mi Calm Calm - N/A   Overcast
12:38 PM 41.0 °F - 39.2 °F 93% 30.14 in 3.0 mi Calm Calm - N/A   Overcast
12:53 PM 42.1 °F - 39.0 °F 89% 30.14 in 4.0 mi Calm Calm - N/A   Overcast
1:53 PM 44.1 °F - 39.9 °F 85% 30.13 in 4.0 mi Calm Calm - N/A   Overcast
2:53 PM 44.1 °F - 41.0 °F 89% 30.13 in 5.0 mi Calm Calm - N/A   Overcast
3:53 PM 43.0 °F - 39.9 °F 89% 30.16 in 5.0 mi Calm Calm - N/A   Overcast
4:39 PM 42.8 °F - 39.2 °F 87% 30.13 in 4.0 mi Calm Calm - N/A   Partly Cloudy
4:53 PM 39.0 °F 35.7 °F 37.9 °F 96% 30.15 in 2.5 mi NNW 4.6 mph - N/A   Scattered Clouds
5:01 PM 39.2 °F 35.9 °F 39.2 °F 100% 30.14 in 2.5 mi NNW 4.6 mph - N/A   Mostly Cloudy
5:11 PM 39.2 °F 35.9 °F 39.2 °F 100% 30.14 in 4.0 mi NNW 4.6 mph - N/A   Overcast
5:53 PM 39.9 °F 35.1 °F 37.9 °F 93% 30.17 in 4.0 mi NNW 6.9 mph - N/A   Overcast
6:16 PM 39.2 °F 37.0 °F 37.4 °F 93% 30.16 in 2.5 mi NNW 3.5 mph - N/A   Overcast
6:51 PM 39.2 °F 37.0 °F 39.2 °F 100% 30.15 in 1.2 mi North 3.5 mph - N/A   Overcast
6:53 PM 39.0 °F 36.8 °F 39.0 °F 100% 30.17 in 1.0 mi North 3.5 mph - N/A   Overcast
6:57 PM 39.2 °F 37.0 °F 39.2 °F 100% 30.15 in 0.8 mi North 3.5 mph - N/A   Overcast
8:53 PM 37.9 °F - 37.9 °F 100% 30.14 in 0.2 mi Calm Calm - N/A Fog Fog
9:53 PM 36.0 °F - 36.0 °F 100% 30.15 in 0.2 mi Calm Calm - 0.01 in Fog Fog
10:53 PM 37.0 °F - 37.0 °F 100% 30.16 in 0.2 mi Calm Calm - N/A Fog Fog
11:53 PM 37.0 °F - 37.0 °F 100% 30.12 in 0.2 mi Calm Calm - N/A Fog Fog